Find OneWeb SL0601

NORAD ID: 54665 Int'l Des: 2022-166 Owner: ONEWEBN Country: UK Constellation: oneweb operational
LEOCIRCULARPOLARONEWEB_TYPE

Live Position

Loading 3D Globe...

About OneWeb SL0601

Description loading...

Upcoming Passes

Passes for default location (London). Set your location on the main map for personalized predictions.

Altitude History

Loading altitude history...

Two-Line Element Set

1 54665U 22166Z 26106.64385029 .00001369 00000-0 32837-2 0 9999
2 54665 87.9197 256.2526 0001619 118.4374 241.6923 13.21817085163577
Epoch: Apr 16, 2026 • Age: 8 hours

Current Status

Altitude 1187.6 km
Velocity 7.26 km/s
Sub-Earth Point -26.48°S, 124.31°W
Launch Date Dec 8, 2022
Age 3.3 years
Type internet

Technical Details

Classification Payload
Mass 148.00 kg
Dry Mass 140.00 kg
Total Mass 148.00 kg
Length 1.30 m
Diameter 1.00 m
Span 5.00 m
Shape Trapezoid+2 pan
Manufacturer ONEWUS
Bus Type ARROW
Phase Status In Orbit
Owner/State ONEWEBN/UK

Most Searched